Weather Roundup
Issued by NWS Chicago, IL

Home | Current Version | Previous Version | Graphics & Text | Print | Product List | Glossary On
Versions: 1 2 3 4 5 6 7 8 9 10 11 12 13 14 15 16 17 18 19 20 21 22 23 24 25 26 27 28 29 30 31 32 33 34 35 36 37 38 39 40 41 42 43 44 45 46 47 48 49 50
188
NZUS59 KLOT 061208
HRRLOT

CHICAGO AREA WEATHER ROUNDUP
NATIONAL WEATHER SERVICE CHICAGO/ROMEOVILLE IL
600 AM CST TUE DEC 06 2016

NOTE: "FAIR" INDICATES FEW OR NO CLOUDS BELOW 12,000 FEET WITH NO
SIGNIFICANT WEATHER AND/OR OBSTRUCTIONS TO VISIBILITY.

* THESE STATIONS ARE NOT UNDER NWS QUALITY CONTROL. THEY ALSO MAY NOT
  REPORT WEATHER SUCH AS PRECIPITATION OR FOG.

ILZ005-006-012>014-019>023-061300-
NORTHEAST ILLINOIS

CITY           SKY/WX    TMP DP  RH WIND       PRES   REMARKS
OHARE          PTCLDY    28  28 100 W3        29.80R FOG
6HR MIN TEMP:  25; 6HR MAX TEMP:  35;

MIDWAY         MOCLDY    33  29  85 CALM      29.79F FOG
6HR MIN TEMP:  29; 6HR MAX TEMP:  35;

AURORA         FOG       23  19  85 CALM      29.81S VSB 1/4
6HR MIN TEMP:  20; 6HR MAX TEMP:  34;

LANSING*       MOCLDY    29  29 100 CALM      29.80S FOG
JOLIET*          N/A     29  29  99 N3        29.80S FOG
WAUKEGAN       MOCLDY    37  34  89 E6        29.80F
6HR MIN TEMP:  34; 6HR MAX TEMP:  38;

DUPAGE AIRPORT FOG       29  27  92 N5        29.80S VSB<1/4 WCI  24
6HR MIN TEMP:  25; 6HR MAX TEMP:  33;

WHEELING       PTCLDY    28  28 100 NW3       29.81F FOG
6HR MIN TEMP:  25; 6HR MAX TEMP:  36;

KANKAKEE*      PTCLDY    31  30  96 CALM      29.78F FOG
MORRIS*        FOG       24  22  94 CALM      29.78S VSB 1/4
LEWIS AIRPORT*   N/A     26  26 100 NE6       29.79F FOG     WCI  19
NORTHERLY ISL    N/A     38  34  85 E10         N/A
$$

WIZ051-052-058>065-066-070>072-061300-
SOUTHEAST WISCONSIN

CITY           SKY/WX    TMP DP  RH WIND       PRES   REMARKS
MILWAUKEE      CLOUDY    38  33  82 SE8       29.81F
6HR MIN TEMP:  36; 6HR MAX TEMP:  39;

KENOSHA*       PTCLDY    33  31  92 E6        29.80F FOG     WCI  28
RACINE*        PTCLDY    37  33  85 SE6       29.82F
BURLINGTON     CLOUDY    32  32 100 CALM      29.80F FOG
WAUKESHA       CLOUDY    30  28  93 E7        29.82F FOG     WCI  23
WEST BEND      CLOUDY    34  34 100 E3        29.81F FOG
$$

INZ001>003-010>013-019-020-061300-
NORTHWEST INDIANA

CITY           SKY/WX    TMP DP  RH WIND       PRES   REMARKS
GARY*          NOT AVBL
MICHIGAN CITY* NOT AVBL
RENSSELAER*    NOT AVBL
VALPARAISO     CLOUDY    32  29  88 E7        29.80R WCI  26
$$

LMZ740>746-061300-
SOUTHERN LAKE MICHIGAN

STATION/POSITION TIME  SKY/WX   TEMP WIND        PRES    VSBY
                                AIR  DIR/SP/G
                 (UTC)          (F)  (DEG/KT/KT) (MB)    (MI)
HARRISON CRIB    1140            40  100/ 12/ 14   N/A
BURNHAM HARBOR   1200            38   80/  7/ 10   N/A
CALUMET HARBOR   1136            37   80/  8/ 11 1008.4F
BURNS HARBOR     1140            33   80/  6/  9 1009.8F
MICHIGAN CITY    NOT AVBL
$$

ABBREVIATIONS USED IN REMARKS
   TC - TEMPERATURE IN CELSIUS
  WCI - WIND CHILL INDEX
   HX - HEAT INDEX
  VSB - VISIBILITY
$$




USA.gov is the U.S. government's official web portal to all federal, state and local government web resources and services.